Weather History for Mumbai, India

Change the Weather History Date:

Tuesday, February 18, 2014

  Actual Average Record
Temperature  
Mean Temperature 78 °F -  
Max Temperature 93 °F 88 °F 95 °F (2002)
Min Temperature 64 °F 70 °F 55 °F (2013)
Cooling Degree Days 14    
Growing Degree Days 28 (Base 50)    
Moisture  
Dew Point 48 °F    
Average Humidity 33    
Maximum Humidity 65    
Minimum Humidity 13    
Precipitation  
Precipitation 0.00 in - - ()
Sea Level Pressure  
Sea Level Pressure 29.94 in    
Wind  
Wind Speed 5 mph ()    
Max Wind Speed 13 mph    
Max Gust Speed -    
Visibility 2.4 miles    
Events      
Averages and records for this station are not official NWS values.
T = Trace of Precipitation, MM = Missing Value Source: Averaged Metar Reports

Daily Weather History Graph

Daily Weather History Graph

Search for Another Location

Airport:

Trip Planner

Search our weather history database for the weather conditions in past years. The results will help you decide how hot, cold, wet, or windy it might be!

Date:

Astronomy

Feb. 18, 2014 Rise Set
Actual Time 7:05 AM IST 6:39 PM IST
Civil Twilight 6:43 AM IST 7:02 PM IST
Nautical Twilight 6:17 AM IST 7:27 PM IST
Astronomical Twilight 5:51 AM IST 7:53 PM IST
Moon 9:31 PM IST (2/18) 8:53 AM IST (2/18)
Length of Visible Light 12h 19m
Length of Day
11h 34m
Waning Gibbous, 90% of the Moon is Illuminated
Feb 18
Waning Gibbous
Feb 22
Last Quarter
Mar 1
New
Mar 8
First Quarter
Mar 16
Full

Hourly Weather History & Observations

Time (IST) Temp. Heat Index Dew Point Humidity Pressure Visibility Wind Dir Wind Speed Gust Speed Precip Events Conditions
12:10 AM 75.2 °F - 50.0 °F 41% 29.98 in 2.2 mi Calm Calm - N/A   Smoke
12:40 AM 73.4 °F - 51.8 °F 47% 29.98 in 2.2 mi Calm Calm - N/A   Smoke
1:10 AM 71.6 °F - 51.8 °F 50% 29.98 in 2.2 mi Calm Calm - N/A   Smoke
1:40 AM 73.4 °F - 50.0 °F 44% 29.95 in 2.2 mi NNE 4.6 mph - N/A   Smoke
2:10 AM 73.4 °F - 46.4 °F 38% 29.95 in 2.2 mi NNE 4.6 mph - N/A   Smoke
2:30 AM 68 °F - 49 °F 40% 29.94 in 1 mi North 4.6 mph - -   Smoke
2:40 AM 75.2 °F - 41.0 °F 29% 29.95 in 2.2 mi NNE 5.8 mph - N/A   Smoke
3:10 AM 77.0 °F - 41.0 °F 28% 29.92 in 2.2 mi NE 6.9 mph - N/A   Smoke
3:40 AM 75.2 °F - 41.0 °F 29% 29.92 in 2.2 mi NE 8.1 mph - N/A   Smoke
4:10 AM 73.4 °F - 39.2 °F 29% 29.92 in 2.2 mi ENE 8.1 mph - N/A   Smoke
4:40 AM 73.4 °F - 39.2 °F 29% 29.92 in 2.2 mi ENE 6.9 mph - N/A   Smoke
5:10 AM 73.4 °F - 41.0 °F 31% 29.92 in 2.2 mi ENE 6.9 mph - N/A   Smoke
5:30 AM 72 °F - 40 °F 21% 29.92 in 1 mi North 9.2 mph - -   Smoke
5:40 AM 73.4 °F - 39.2 °F 29% 29.92 in 2.2 mi ENE 8.1 mph - N/A   Smoke
6:10 AM 73.4 °F - 39.2 °F 29% 29.95 in 2.2 mi ENE 10.4 mph - N/A   Smoke
6:40 AM 73.4 °F - 39.2 °F 29% 29.95 in 2.2 mi ENE 12.7 mph - N/A   Smoke
7:10 AM 73.4 °F - 39.2 °F 29% 29.98 in 2.2 mi East 12.7 mph - N/A   Smoke
7:40 AM 73.4 °F - 39.2 °F 29% 29.98 in 2.2 mi East 10.4 mph - N/A   Smoke
8:30 AM 73 °F - 60 °F 54% 30.00 in 1 mi NE 4.6 mph - -   Smoke
8:40 AM 75.2 °F - 39.2 °F 27% 30.01 in 1.9 mi East 11.5 mph - N/A   Smoke
9:40 AM 80.6 °F - 41.0 °F 24% 30.01 in 1.9 mi ENE 9.2 mph - N/A   Smoke
10:10 AM 82.4 °F - 42.8 °F 25% 30.04 in 1.9 mi East 8.1 mph - N/A   Smoke
10:40 AM 84.2 °F - 41.0 °F 22% 30.01 in 1.9 mi ENE 8.1 mph - N/A   Smoke
11:10 AM 86.0 °F - 42.8 °F 22% 30.01 in 2.2 mi East 9.2 mph - N/A   Smoke
11:30 AM 87 °F - 43 °F 13% 30.01 in 1 mi East 9.2 mph - -   Smoke
11:40 AM 87.8 °F - 44.6 °F 22% 30.01 in 2.2 mi East 8.1 mph - N/A   Smoke
12:10 PM 89.6 °F - 44.6 °F 21% 29.98 in 2.5 mi ESE 10.4 mph - N/A   Smoke
12:40 PM 91.4 °F - 42.8 °F 18% 29.95 in 2.5 mi SE 10.4 mph - N/A   Smoke
1:10 PM 91.4 °F - 42.8 °F 18% 29.95 in 2.5 mi East 3.5 mph - N/A   Smoke
2:10 PM 91.4 °F - 42.8 °F 18% 29.92 in 3.7 mi South 4.6 mph - N/A   Unknown
2:30 PM 90 °F - 45 °F 13% 29.89 in 1 mi NW 6.9 mph - -   Smoke
2:40 PM 89.6 °F - 50.0 °F 26% 29.89 in 4.3 mi WNW 9.2 mph - N/A   Unknown
3:10 PM 89.6 °F - 48.2 °F 24% 29.89 in 5.0 mi WNW 10.4 mph - N/A   Unknown
3:40 PM 87.8 °F - 51.8 °F 29% 29.89 in 5.6 mi WNW 12.7 mph - N/A   Unknown
4:10 PM 87.8 °F - 48.2 °F 25% 29.86 in 5.0 mi WNW 12.7 mph - N/A   Unknown
4:40 PM 86.0 °F 85.4 °F 59.0 °F 40% 29.86 in 4.3 mi NW 8.1 mph - N/A   Unknown
5:10 PM 87.8 °F - 51.8 °F 29% 29.86 in 3.7 mi NW 5.8 mph - N/A   Unknown
5:30 PM 86 °F - 53 °F 23% 29.86 in 1 mi NW 6.9 mph - -   Smoke
5:40 PM 86.0 °F 84.5 °F 55.4 °F 35% 29.86 in 3.7 mi NW 8.1 mph - N/A   Unknown
6:10 PM 84.2 °F 83.0 °F 55.4 °F 37% 29.86 in 3.7 mi NW 5.8 mph - N/A   Unknown
7:10 PM 82.4 °F - 50.0 °F 32% 29.89 in 3.1 mi NNW 8.1 mph - N/A   Smoke
7:40 PM 80.6 °F - 51.8 °F 37% 29.89 in 2.5 mi NNW 8.1 mph - N/A   Smoke
8:10 PM 80.6 °F - 51.8 °F 37% 29.92 in 2.5 mi NNW 6.9 mph - N/A   Smoke
8:30 PM 80 °F - 70 °F 65% 29.91 in 1 mi North 4.6 mph - -   Smoke
8:40 PM 80.6 °F 80.3 °F 53.6 °F 39% 29.92 in 2.5 mi NNW 5.8 mph - N/A   Smoke
9:40 PM 78.8 °F - 57.2 °F 47% 29.95 in 1.9 mi ENE 4.6 mph - N/A   Smoke
10:10 PM 77.0 °F - 57.2 °F 50% 29.95 in 1.9 mi Calm Calm - N/A   Smoke
10:40 PM 77.0 °F - 57.2 °F 50% 29.95 in 1.9 mi Variable 2.3 mph - N/A   Smoke
11:10 PM 77.0 °F - 57.2 °F 50% 29.95 in 1.7 mi Variable 2.3 mph - N/A   Smoke
11:30 PM 72 °F - 60 °F 58% 29.94 in 1 mi Calm Calm - -   Smoke
11:40 PM 77.0 °F - 57.2 °F 50% 29.92 in 1.5 mi Calm Calm - N/A   Smoke